Location: Curry Village
(37.7369°N, 119.5727°W)
Time: 22:46:18
(UTC+00:00)

S3M - Pass Details

Date: 05 August 2024
Orbit: 948 x 1004 km, 83.0° (Epoch: 07 September)

Event Time Altitude Azimuth Distance (km) Brightness Sun altitude
Rises 12:14:29 0° 191° (S) 3,678 6.6 -9.9°
Reaches altitude 10° 12:17:01 10° 193° (SSW) 2,725 5.9 -9.5°
Maximum altitude 12:23:14 72° 277° (W) 1,019 4.0 -8.4°
Drops below altitude 10° 12:29:25 10° 2° (N) 2,704 6.8 -7.4°
Sets 12:31:56 0° 5° (N) 3,647 7.5 -6.9°
